Regional Weather Roundup
Issued by NWS Sioux Falls, SD

Home | Current Version | Previous Version | Text Only | Print | Product List | Glossary On
Versions: 1 2 3 4 5 6 7 8 9 10 11 12 13 14 15 16 17 18 19 20 21 22 23 24 25 26 27 28 29 30 31 32 33 34 35 36 37 38 39 40 41 42 43 44 45 46 47 48 49 50
000
ASUS43 KFSD 031302
RWRFSD

WEATHER ROUNDUP FOR SE SOUTH DAKOTA/SW MINNESOTA/NW IOWA
NATIONAL WEATHER SERVICE SIOUX FALLS SD
800 AM CDT THU SEP 03 2015

NOTE: "FAIR" INDICATES FEW OR NO CLOUDS BELOW 12,000 FEET WITH NO
SIGNIFICANT WEATHER AND OR OBSTRUCTIONS TO VISIBILITY.


SDZ038>040-050-052>070-031400-
SOUTHEAST SOUTH DAKOTA

CITY           SKY/WX    TMP DP  RH WIND       PRES   REMARKS
BROOKINGS      SUNNY     70  66  88 SE9       29.86R
CHAMBERLAIN    CLEAR     65  64  98 E5        29.78R
HURON          SUNNY     69  67  93 MISG      29.78R
MADISON        FAIR      68  68 100 SE8       29.84S
MITCHELL       SUNNY     69  67  93 SE9       29.79R
SIOUX FALLS    SUNNY     70  67  90 SE7       29.84R
WINNER         FAIR      74  60  61 S8        29.78R
YANKTON        SUNNY     66  64  94 E5        29.81R
$$

MNZ071-072-080-081-089-090-097-098-031400-
SOUTHWEST MINNESOTA

CITY           SKY/WX    TMP DP  RH WIND       PRES   REMARKS
FAIRMONT       SUNNY     66  63  88 SE6       29.89R
JACKSON        SUNNY     70  68  94 S6        29.89S FOG
LUVERNE        SUNNY     68  66  94 SE3       29.87R FOG
MARSHALL       CLOUDY    66  63  88 SE6       29.87R
MONTEVIDEO     FOG       70  70 100 S7        29.87S VSB 1/4
PIPESTONE      SUNNY     68  66  94 SE5       29.87R FOG
REDWOOD FALLS  FOG       69  68  96 E7        29.86S VSB 1/4
TRACY          SUNNY     70  69  96 S6        29.87R
WINDOM         SUNNY     70  66  88 CALM      29.88S
WORTHINGTON    SUNNY     68  64  88 S6        29.88S
$$

IAZ001>003-012>014-020>022-031-032-NEZ013-014-SDZ071-031400-
NORTHWEST IOWA

CITY           SKY/WX    TMP DP  RH WIND       PRES   REMARKS
DENISON        SUNNY     72  68  88 S8G14     29.87R
ESTHERVILLE    SUNNY     67  67 100 S6        29.89R FOG
LE MARS        SUNNY     72  70  94 S6        29.85S
SIOUX CITY     SUNNY     70  65  84 SE7       29.84R
SPENCER        SUNNY     70  67  90 SE7       29.88S FOG
$$

ABBREVIATIONS USED IN REMARKS
   TC - TEMPERATURE IN CELSIUS
  WCI - WIND CHILL INDEX
   HX - HEAT INDEX
  VSB - VISIBILITY



USA.gov is the U.S. government's official web portal to all federal, state and local government web resources and services.